Location: Bouchavesnes-Bergen
(49.9859°N, 2.9203°E)
Time: 11:33:50
(UTC+00:00)

Cosmos 1242 Rocket - Pass Details

Date: 09 March 2021
Orbit: 447 x 484 km, 81.2° (Epoch: 13 April)

Event Time Altitude Azimuth Distance (km) Brightness Sun altitude
Rises 05:30:34 0° 190° (S) 2,445 6.0 -7.9°
Reaches altitude 10° 05:32:37 10° 190° (S) 1,582 5.1 -7.6°
Maximum altitude 05:36:04 87° 104° (ESE) 463 2.5 -7.0°
Drops below altitude 10° 05:39:36 10° 13° (NNE) 1,614 5.4 -6.5°
Sets 05:41:42 0° 13° (NNE) 2,500 6.4 -6.1°
